Weather History for Coldwater, MI

Change the Weather History Date:

Monday, March 4, 2013

  Actual Average (KJYM) Record (KJYM)
Temperature  
Mean Temperature 18 °F -  
Max Temperature 31 °F 40 °F 68 °F (1983)
Min Temperature 5 °F 22 °F -4 °F (1978)
Degree Days  
Heating Degree Days 47    
Moisture  
Dew Point 11 °F    
Average Humidity 70    
Maximum Humidity 93    
Minimum Humidity 41    
Precipitation  
Precipitation 0.00 in - - ()
Sea Level Pressure  
Sea Level Pressure 30.08 in    
Wind  
Wind Speed 1 mph (ESE)    
Max Wind Speed 5 mph    
Max Gust Speed -    
Visibility 9 miles    
Events      
Averages and records for this station are not official NWS values.
T = Trace of Precipitation, MM = Missing Value Source: NWS Daily Summary

Daily Weather History Graph

Daily Weather History Graph

Search for Another Location

Airport:

Trip Planner

Search our weather history database for the weather conditions in past years. The results will help you decide how hot, cold, wet, or windy it might be!

Date:

Astronomy

Mar. 04, 2013 Rise Set
Actual Time 7:09 AM EST 6:34 PM EST
Civil Twilight 6:42 AM EST 7:02 PM EST
Nautical Twilight 6:09 AM EST 7:34 PM EST
Astronomical Twilight 5:37 AM EST 8:06 PM EST
Moon 1:22 AM EST (3/4) 11:11 AM EST (3/4)
Length of Visible Light 12h 20m
Length of Day
11h 24m
Waning Gibbous, 52% of the Moon is Illuminated
Mar 4
Waning Gibbous
Mar 4
Last Quarter
Mar 11
New
Mar 19
First Quarter
Mar 27
Full

Hourly Weather History & Observations

Time (EST) Temp. Windchill Dew Point Humidity Pressure Visibility Wind Dir Wind Speed Gust Speed Precip Events Conditions
12:14 AM 15.3 °F 7.9 °F 11.7 °F 86% 30.06 in 10.0 mi West 4.6 mph - N/A   Clear
12:34 AM 16.2 °F 10.6 °F 12.2 °F 84% 30.07 in 10.0 mi West 3.5 mph - N/A   Clear
12:55 AM 15.4 °F - 12.6 °F 88% 30.07 in 10.0 mi Calm Calm - N/A   Clear
1:14 AM 12.7 °F - 9.5 °F 87% 30.07 in 10.0 mi Calm Calm - N/A   Clear
1:34 AM 15.6 °F - 12.9 °F 89% 30.07 in 10.0 mi Calm Calm - N/A   Clear
1:54 AM 13.8 °F - 10.9 °F 88% 30.07 in 10.0 mi Calm Calm - N/A   Clear
2:14 AM 12.2 °F - 9.7 °F 90% 30.07 in 10.0 mi Calm Calm - N/A   Clear
2:54 AM 13.3 °F - 11.5 °F 93% 30.07 in 10.0 mi Calm Calm - N/A   Clear
3:14 AM 12.0 °F - 10.0 °F 92% 30.07 in 10.0 mi Calm Calm - N/A   Clear
3:35 AM 10.2 °F - 8.1 °F 91% 30.07 in 10.0 mi Calm Calm - N/A   Clear
3:54 AM 10.8 °F - 8.4 °F 90% 30.08 in 7.0 mi Calm Calm - N/A   Clear
4:14 AM 10.9 °F - 8.6 °F 90% 30.08 in 5.0 mi Calm Calm - N/A   Clear
4:35 AM 9.5 °F - 7.3 °F 91% 30.08 in 7.0 mi Calm Calm - N/A   Clear
4:54 AM 9.3 °F - 6.8 °F 89% 30.09 in 7.0 mi Calm Calm - N/A   Clear
5:14 AM 9.0 °F - 6.4 °F 89% 30.10 in 7.0 mi Calm Calm - N/A   Clear
5:35 AM 9.3 °F - 6.6 °F 89% 30.10 in 7.0 mi Calm Calm - N/A   Clear
5:54 AM 8.6 °F - 5.9 °F 89% 30.10 in 7.0 mi Calm Calm - N/A   Clear
6:14 AM 8.4 °F - 5.5 °F 88% 30.10 in 10.0 mi North - - N/A   Clear
6:34 AM 8.1 °F - 5.2 °F 88% 30.11 in 10.0 mi North - - N/A   Clear
6:54 AM 6.6 °F - 3.2 °F 86% 30.11 in 10.0 mi Calm Calm - N/A   Clear
7:14 AM 7.0 °F 0.1 °F 4.1 °F 88% 30.12 in 10.0 mi WSW 3.5 mph - N/A   Clear
7:34 AM 5.5 °F - 2.3 °F 86% 30.12 in 7.0 mi Calm Calm - N/A   Clear
7:54 AM 7.5 °F - 4.8 °F 89% 30.13 in 7.0 mi Calm Calm - N/A   Clear
8:15 AM 9.5 °F - 6.8 °F 89% 30.13 in 7.0 mi Calm Calm - N/A   Clear
8:34 AM 11.7 °F - 9.0 °F 89% 30.12 in 7.0 mi Calm Calm - N/A   Clear
8:54 AM 13.8 °F - 11.3 °F 90% 30.12 in 4.0 mi Calm Calm - N/A   Clear
9:15 AM 14.9 °F - 12.7 °F 91% 30.12 in 7.0 mi Calm Calm - N/A   Clear
9:34 AM 16.7 °F - 14.7 °F 92% 30.12 in 10.0 mi Calm Calm - N/A   Clear
9:54 AM 18.5 °F - 16.5 °F 92% 30.12 in 10.0 mi Calm Calm - N/A   Clear
10:14 AM 19.2 °F - 16.7 °F 90% 30.12 in 10.0 mi Calm Calm - N/A   Clear
10:34 AM 19.9 °F - 16.9 °F 88% 30.12 in 10.0 mi Calm Calm - N/A   Clear
10:55 AM 22.1 °F - 15.1 °F 74% 30.12 in 10.0 mi Calm Calm - N/A   Clear
11:14 AM 23.4 °F - 14.0 °F 67% 30.11 in 10.0 mi Calm Calm - N/A   Clear
11:34 AM 28.6 °F - 13.6 °F 54% 30.11 in 10.0 mi Calm Calm - N/A   Clear
11:55 AM 27.5 °F - 13.6 °F 56% 30.11 in 10.0 mi Calm Calm - N/A   Clear
12:14 PM 28.2 °F - 13.5 °F 54% 30.10 in 10.0 mi Calm Calm - N/A   Clear
12:34 PM 27.1 °F - 14.0 °F 58% 30.11 in 10.0 mi Calm Calm - N/A   Clear
12:55 PM 27.5 °F - 13.8 °F 56% 30.10 in 10.0 mi Calm Calm - N/A   Clear
1:14 PM 27.5 °F - 14.4 °F 58% 30.09 in 10.0 mi Calm Calm - N/A   Clear
1:54 PM 28.6 °F - 14.7 °F 56% 30.07 in 10.0 mi Calm Calm - N/A   Clear
2:14 PM 29.3 °F - 14.0 °F 53% 30.07 in 10.0 mi Calm Calm - N/A   Clear
2:34 PM 29.7 °F - 14.4 °F 53% 30.07 in 10.0 mi Calm Calm - N/A   Clear
2:54 PM 30.2 °F - 10.9 °F 45% 30.07 in 10.0 mi Calm Calm - N/A   Clear
3:14 PM 30.2 °F - 9.1 °F 41% 30.07 in 10.0 mi Calm Calm - N/A   Clear
3:34 PM 30.6 °F 27.1 °F 10.4 °F 43% 30.06 in 10.0 mi East 3.5 mph - N/A   Clear
3:54 PM 30.6 °F 27.1 °F 11.5 °F 45% 30.05 in 10.0 mi East 3.5 mph - N/A   Clear
4:35 PM 30.9 °F 26.2 °F 9.7 °F 41% 30.04 in 10.0 mi ESE 4.6 mph - N/A   Clear
4:54 PM 31.1 °F 26.4 °F 10.6 °F 42% 30.04 in 10.0 mi ESE 4.6 mph - N/A   Clear
5:14 PM 30.9 °F 27.5 °F 11.5 °F 44% 30.04 in 10.0 mi SE 3.5 mph - N/A   Clear
5:35 PM 30.7 °F - 13.3 °F 48% 30.04 in 10.0 mi Calm Calm - N/A   Clear
5:54 PM 30.6 °F 27.1 °F 13.1 °F 48% 30.04 in 10.0 mi SE 3.5 mph - N/A   Clear
6:14 PM 30.6 °F - 13.3 °F 49% 30.04 in 10.0 mi Calm Calm - N/A   Clear
6:35 PM 30.2 °F - 12.4 °F 48% 30.04 in 10.0 mi Calm Calm - N/A   Clear
6:54 PM 29.7 °F - 11.7 °F 47% 30.04 in 10.0 mi Calm Calm - N/A   Clear
7:14 PM 29.3 °F - 11.5 °F 47% 30.04 in 10.0 mi Calm Calm - N/A   Clear
7:35 PM 29.1 °F - 11.3 °F 47% 30.04 in 10.0 mi Calm Calm - N/A   Clear
7:54 PM 28.6 °F 24.8 °F 12.0 °F 50% 30.04 in 10.0 mi East 3.5 mph - N/A   Clear
8:14 PM 28.4 °F 24.6 °F 12.6 °F 52% 30.04 in 10.0 mi East 3.5 mph - N/A   Clear
8:35 PM 27.7 °F 23.8 °F 14.0 °F 57% 30.04 in 10.0 mi East 3.5 mph - N/A   Scattered Clouds
8:54 PM 27.5 °F - 14.5 °F 58% 30.05 in 10.0 mi Calm Calm - N/A   Mostly Cloudy
9:35 PM 27.3 °F - 14.9 °F 60% 30.05 in 10.0 mi Calm Calm - N/A   Mostly Cloudy
9:54 PM 27.3 °F - 14.7 °F 59% 30.05 in 10.0 mi Calm Calm - N/A   Scattered Clouds
10:14 PM 27.1 °F - 14.2 °F 58% 30.06 in 10.0 mi Calm Calm - N/A   Clear
10:35 PM 26.6 °F - 14.2 °F 60% 30.07 in 10.0 mi Calm Calm - N/A   Clear
10:54 PM 26.2 °F - 14.0 °F 60% 30.07 in 10.0 mi Calm Calm - N/A   Scattered Clouds
11:14 PM 25.5 °F - 14.7 °F 64% 30.07 in 10.0 mi Calm Calm - N/A   Mostly Cloudy
11:54 PM 24.6 °F 20.3 °F 15.8 °F 69% 30.07 in 10.0 mi East 3.5 mph - N/A   Mostly Cloudy